Location: Observatorio Las Palmas
(29.0667°N, 110.9333°W)
Time: 16:06:27
(UTC-07:00)

HST - Visible Passes

Search period start: 22 October 2014 00:00
Search period end: 01 November 2014 00:00
Orbit: 546 x 550 km, 28.5° (Epoch: 22 October)

Date Brightness Start Highest point End Pass type
(mag) Time Alt. Az. Time Alt. Az. Time Alt. Az.
22 Oct 2.8 19:44:38 10° SW 19:46:26 21° SSW 19:46:26 21° SSW visible
23 Oct 2.2 19:37:08 10° SW 19:39:46 30° SSW 19:39:46 30° SSW visible
24 Oct 1.6 19:29:42 10° WSW 19:33:03 42° SSW 19:33:03 42° SSW visible
25 Oct 1.1 19:22:21 10° WSW 19:26:16 56° S 19:26:16 56° S visible
26 Oct 0.8 19:15:01 10° WSW 19:19:10 66° S 19:19:27 64° SE visible
27 Oct 0.7 19:07:43 10° WSW 19:11:54 75° S 19:12:35 58° ESE visible
28 Oct 0.7 19:00:25 10° W 19:04:37 80° S 19:05:42 48° E visible
29 Oct 0.7 18:53:08 10° W 18:57:20 84° S 18:58:49 39° E visible
30 Oct 0.7 18:45:51 10° W 18:50:03 84° S 18:51:56 32° E visible
30 Oct 4.1 20:27:19 10° W 20:27:28 11° W 20:27:28 11° W visible
31 Oct 0.8 18:38:33 10° W 18:42:45 81° S 18:45:04 26° E visible
31 Oct 3.9 20:20:04 10° W 20:20:37 13° W 20:20:37 13° W visible
